OE-11208 Weather Reports


Display with metric or nautical units.
time (UTC)temp
F
wind
direction
speed
MPH
gust
MPH
rain 1hr
in
rain 24hr
in
rain mn
in
humidity
%
barometer
mb
20260903081136 65 145 1.0 4.0 0.00 0.00 0.00 73 1021.7
20260903080523 64 47 2.0 4.0 0.00 0.00 0.00 73 1021.8
20260903075523 62 153 1.0 2.0 0.00 0.00 0.00 76 1022.2
20260903074136 63 141 1.0 3.0 0.00 0.00 0.00 77 1022.1
20260903073522 61 143 2.0 4.0 0.00 0.00 0.00 80 1022.4
20260903072522 62 147 2.0 3.0 0.00 0.00 0.00 80 1022.3
20260903071136 59 143 2.0 3.0 0.00 0.00 0.00 85 1022.9
20260903070523 59 113 2.0 3.0 0.00 0.00 0.00 86 1022.9
20260903065523 59 67 1.0 3.0 0.00 0.00 0.00 87 1022.8
20260903064135 58 360 0.0 1.0 0.00 0.00 0.00 87 1023.2
20260903063522 58 195 1.0 2.0 0.00 0.00 0.00 90 1023.1
20260903062523 57 222 2.0 3.0 0.00 0.00 0.00 90 1023.2
20260903061136 56 240 2.0 3.0 0.00 0.00 0.00 90 1023.3
20260903060523 56 249 2.0 3.0 0.00 0.00 0.00 92 1023.3
20260903055522 56 220 2.0 4.0 0.00 0.00 0.00 92 1023.2
20260903054135 56 209 0.0 2.0 0.00 0.00 0.00 94 1023.3
20260903053523 55 110 1.0 1.0 0.00 0.00 0.00 94 1023.3
20260903052523 55 131 0.0 2.0 0.00 0.00 0.00 94 1023.4
20260903051136 55 127 1.0 2.0 0.00 0.00 0.00 94 1023.3
20260903050522 55 198 0.0 1.0 0.00 0.00 0.00 94 1023.3
20260903045523 55 8 0.0 1.0 0.00 0.00 0.00 94 1023.2
20260903044135 55 269 1.0 1.0 0.00 0.00 0.00 93 1023.2
20260903043522 55 163 1.0 2.0 0.00 0.00 0.00 94 1023.2
20260903042523 55 333 1.0 2.0 0.00 0.00 0.00 93 1023.2
20260903041135 55 118 1.0 2.0 0.00 0.00 0.00 94 1023.2
20260903040523 55 230 0.0 2.0 0.00 0.00 0.00 94 1023.3
20260903035523 55 348 0.0 1.0 0.00 0.00 0.00 93 1023.1
20260903034522 54 111 1.0 3.0 0.00 0.00 0.00 94 1023.2
20260903033522 54 71 2.0 2.0 0.00 0.00 0.00 94 1023.2
20260903032523 55 293 1.0 2.0 0.00 0.00 0.00 94 1023.2
20260903031136 54 181 1.0 2.0 0.00 0.00 0.00 94 1023.3
20260903030523 54 176 1.0 1.0 0.00 0.00 0.00 93 1023.3
20260903025523 54 199 1.0 1.0 0.00 0.00 0.00 94 1023.3
20260903024523 54 335 1.0 2.0 0.00 0.00 0.00 93 1023.3
20260903023523 55 259 0.0 1.0 0.00 0.00 0.00 93 1023.2
20260903022523 55 134 1.0 2.0 0.00 0.00 0.00 93 1023.2
20260903021135 55 360 0.0 2.0 0.00 0.00 0.00 94 1023.2
20260903020523 54 253 1.0 2.0 0.00 0.00 0.00 94 1023.3
20260903015523 54 220 1.0 2.0 0.00 0.00 0.00 94 1023.3
20260903014135 55 360 0.0 2.0 0.00 0.00 0.00 92 1023.4
20260903013522 54 150 1.0 2.0 0.00 0.00 0.00 94 1023.5
20260903012522 54 92 0.0 1.0 0.00 0.00 0.00 93 1023.5
20260903011136 54 325 0.0 1.0 0.00 0.00 0.00 94 1023.5
20260903010523 54 272 0.0 1.0 0.00 0.00 0.00 93 1023.5
20260903005523 54 246 0.0 1.0 0.00 0.00 0.00 94 1023.6
20260903004136 54 141 0.0 1.0 0.00 0.00 0.00 93 1023.5
20260903003523 53 97 1.0 2.0 0.00 0.00 0.00 94 1023.5
20260903002523 54 343 1.0 2.0 0.00 0.00 0.00 93 1023.5
20260903001535 53 210 1.0 2.0 0.00 0.00 0.00 94 1023.6
20260903000522 53 103 1.0 2.0 0.00 0.00 0.00 94 1023.7
20260902235522 52 119 1.0 4.0 0.00 0.00 0.00 93 1023.9
20260902234136 52 40 0.0 2.0 0.00 0.00 0.00 93 1024.0
20260902233522 52 248 1.0 3.0 0.00 0.00 0.00 93 1023.8
20260902232522 54 256 1.0 2.0 0.00 0.00 0.00 93 1023.5
20260902231523 53 181 0.0 2.0 0.00 0.00 0.00 93 1023.5
20260902230522 53 32 1.0 2.0 0.00 0.00 0.00 92 1023.5
20260902225523 55 348 1.0 2.0 0.00 0.00 0.00 92 1023.2
20260902224136 54 173 1.0 3.0 0.00 0.00 0.00 91 1023.1
20260902223523 54 154 1.0 3.0 0.00 0.00 0.00 92 1022.9
20260902222523 55 358 1.0 2.0 0.00 0.00 0.00 90 1022.7
20260902221136 56 360 0.0 1.0 0.00 0.00 0.00 90 1022.5
20260902220522 56 220 1.0 2.0 0.00 0.00 0.00 89 1022.4
20260902215522 55 223 1.0 2.0 0.00 0.00 0.00 90 1022.5
20260902214136 56 276 1.0 2.0 0.00 0.00 0.00 89 1022.3
20260902213522 55 360 1.0 2.0 0.00 0.00 0.00 89 1022.5
20260902211136 56 132 1.0 3.0 0.00 0.00 0.00 89 1022.3
20260902210523 57 21 1.0 2.0 0.00 0.00 0.00 86 1022.1
20260902205523 57 137 1.0 3.0 0.00 0.00 0.00 87 1022.1
20260902204137 57 47 1.0 2.0 0.00 0.00 0.00 87 1022.1
20260902203522 57 278 1.0 1.0 0.00 0.00 0.00 86 1022.0
20260902202523 57 234 1.0 2.0 0.00 0.00 0.00 85 1021.9
20260902201136 57 185 1.0 2.0 0.00 0.00 0.00 88 1022.0
20260902200523 57 148 0.0 1.0 0.00 0.00 0.00 85 1021.9
20260902195523 58 172 1.0 2.0 0.00 0.00 0.00 84 1021.8
20260902194136 58 49 1.0 3.0 0.00 0.00 0.00 85 1021.7
20260902193523 59 49 2.0 4.0 0.00 0.00 0.00 81 1021.4
20260902192522 59 146 2.0 4.0 0.00 0.00 0.00 81 1021.3
20260902191136 59 296 2.0 5.0 0.00 0.00 0.00 80 1021.2
20260902190522 60 124 1.0 3.0 0.00 0.00 0.00 79 1021.1
20260902185523 60 359 1.0 4.0 0.00 0.00 0.00 78 1020.8
20260902184136 60 20 1.0 4.0 0.00 0.00 0.00 77 1020.5
20260902183523 62 16 2.0 5.0 0.00 0.00 0.00 74 1019.9
20260902182523 62 75 2.0 4.0 0.00 0.00 0.00 71 1019.7
20260902181136 64 212 1.0 7.0 0.00 0.00 0.00 67 1019.3
20260902180523 64 243 3.0 5.0 0.00 0.00 0.00 66 1019.1
20260902175523 64 333 4.0 13.0 0.00 0.00 0.00 68 1018.9
20260902174136 66 329 4.0 11.0 0.00 0.00 0.00 63 1018.2
20260902173522 67 328 3.0 12.0 0.00 0.00 0.00 58 1017.8
20260902172523 68 332 4.0 13.0 0.00 0.00 0.00 60 1017.5
20260902171136 69 353 7.0 14.0 0.00 0.00 0.00 56 1017.3
20260902170523 69 3 8.0 16.0 0.00 0.00 0.00 53 1017.1
20260902165523 70 15 10.0 17.0 0.00 0.00 0.00 52 1017.1
20260902164136 71 10 11.0 18.0 0.00 0.00 0.00 47 1017.0
20260902163523 71 7 11.0 20.0 0.00 0.00 0.00 45 1016.8
20260902162523 72 5 11.0 17.0 0.00 0.00 0.00 45 1016.6
20260902161136 72 6 10.0 17.0 0.00 0.00 0.00 45 1016.6
20260902160522 72 8 10.0 17.0 0.00 0.00 0.00 46 1016.4
20260902155523 73 8 11.0 20.0 0.00 0.00 0.00 45 1016.3
20260902154136 73 16 11.0 18.0 0.00 0.00 0.00 45 1016.4
20260902153523 74 20 12.0 17.0 0.00 0.00 0.00 43 1016.2
20260902152522 74 15 11.0 18.0 0.00 0.00 0.00 45 1016.4
20260902151136 75 4 9.0 15.0 0.00 0.00 0.00 43 1016.2
20260902150523 75 15 12.0 18.0 0.00 0.00 0.00 47 1016.2
20260902145523 75 13 11.0 17.0 0.00 0.00 0.00 45 1016.2
20260902144136 75 6 12.0 18.0 0.00 0.00 0.00 45 1016.2
20260902143522 79 3 2.0 11.0 0.00 0.00 0.00 41 1015.5
20260902142523 78 235 1.0 7.0 0.00 0.00 0.00 42 1015.7
20260902141136 77 225 2.0 11.0 0.00 0.00 0.00 41 1015.8
20260902140523 78 35 4.0 11.0 0.00 0.00 0.00 42 1015.7
20260902135523 78 300 3.0 9.0 0.00 0.00 0.00 42 1015.5
20260902134135 76 263 3.0 9.0 0.00 0.00 0.00 46 1016.0
20260902133523 76 257 3.0 9.0 0.00 0.00 0.00 39 1016.0
20260902132523 78 293 4.0 11.0 0.00 0.00 0.00 37 1015.9
20260902131136 77 304 3.0 8.0 0.00 0.00 0.00 33 1016.0
20260902130523 76 272 3.0 7.0 0.00 0.00 0.00 38 1016.1
20260902125523 77 254 2.0 5.0 0.00 0.00 0.00 39 1016.2
20260902124135 76 278 5.0 13.0 0.00 0.00 0.00 35 1016.5
20260902123523 76 240 4.0 11.0 0.00 0.00 0.00 41 1016.4
20260902122523 77 219 4.0 8.0 0.00 0.00 0.00 43 1016.3
20260902121136 76 206 4.0 8.0 0.00 0.00 0.00 45 1016.4
20260902120522 77 219 4.0 7.0 0.00 0.00 0.00 44 1016.5
20260902115522 76 211 4.0 8.0 0.00 0.00 0.00 43 1016.8
20260902114136 76 210 4.0 8.0 0.00 0.00 0.00 45 1016.7
20260902113523 75 212 3.0 8.0 0.00 0.00 0.00 45 1017.1
20260902112523 76 199 3.0 7.0 0.00 0.00 0.00 42 1017.1
20260902111136 75 207 3.0 8.0 0.00 0.00 0.00 41 1017.3
20260902110523 75 202 4.0 7.0 0.00 0.00 0.00 44 1017.3
20260902105522 75 193 4.0 8.0 0.00 0.00 0.00 46 1017.5
20260902104136 74 218 4.0 9.0 0.00 0.00 0.00 43 1017.7
20260902103523 74 222 3.0 7.0 0.00 0.00 0.00 49 1017.8
20260902102522 73 213 4.0 8.0 0.00 0.00 0.00 46 1018.1
20260902101136 73 205 3.0 7.0 0.00 0.00 0.00 52 1018.5
20260902100523 72 170 3.0 6.0 0.00 0.00 0.00 54 1018.6
20260902095523 71 200 3.0 6.0 0.00 0.00 0.00 55 1018.9
20260902094136 70 219 2.0 5.0 0.00 0.00 0.00 53 1019.3
20260902093523 69 233 2.0 5.0 0.00 0.00 0.00 57 1019.5
20260902092522 69 206 3.0 5.0 0.00 0.00 0.00 60 1019.6
20260902091135 68 180 1.0 4.0 0.00 0.00 0.00 63 1019.6
20260902090523 68 179 2.0 5.0 0.00 0.00 0.00 65 1019.7
20260902084135 66 85 1.0 3.0 0.00 0.00 0.00 68 1020.3
20260902083523 65 147 1.0 4.0 0.00 0.00 0.00 74 1020.6
20260902082523 64 179 2.0 4.0 0.00 0.00 0.00 69 1020.9